Time,TemperatureF,DewpointF,PressureIn,WindDirection,WindDirectionDegrees,WindSpeedMPH,WindSpeedGustMPH,Humidity,HourlyPrecipIn,Conditions,Clouds,dailyrainin,SoftwareType,DateUTC
2013-02-15 00:04:00,23.5,21.4,30.04,NNW,337,13.0,14.0,91,0.00,,,0.12,meteohub,2013-02-15 06:04:00,
2013-02-15 00:09:00,23.4,20.8,30.04,NNW,333,10.0,15.0,90,0.00,,,0.00,meteohub,2013-02-15 06:09:00,
2013-02-15 00:14:00,23.2,20.7,30.04,NNW,329,8.0,15.0,90,0.00,,,0.00,meteohub,2013-02-15 06:14:00,
2013-02-15 00:19:00,23.0,20.3,30.05,NNW,348,9.0,16.0,89,0.00,,,0.00,meteohub,2013-02-15 06:19:00,
2013-02-15 00:25:00,22.8,19.8,30.05,NNW,339,12.0,16.0,88,0.00,,,0.00,meteohub,2013-02-15 06:25:00,
2013-02-15 00:30:00,22.6,19.4,30.05,North,355,8.0,16.0,87,0.00,,,0.00,meteohub,2013-02-15 06:30:00,
2013-02-15 00:35:00,22.6,19.4,30.05,NNW,336,11.0,16.0,87,0.00,,,0.00,meteohub,2013-02-15 06:35:00,
2013-02-15 00:40:00,22.5,18.9,30.05,NNW,338,10.0,16.0,86,0.00,,,0.00,meteohub,2013-02-15 06:40:00,
2013-02-15 00:45:00,22.5,18.9,30.06,NNW,348,9.0,15.0,86,0.00,,,0.00,meteohub,2013-02-15 06:45:00,
2013-02-15 00:50:00,22.5,18.7,30.06,NNW,331,9.0,15.0,85,0.00,,,0.00,meteohub,2013-02-15 06:50:00,
2013-02-15 00:56:00,22.3,18.5,30.06,NNW,344,10.0,16.0,85,0.00,,,0.00,meteohub,2013-02-15 06:56:00,
2013-02-15 01:01:00,21.9,17.6,30.06,NNW,331,10.0,16.0,83,0.00,,,0.00,meteohub,2013-02-15 07:01:00,
2013-02-15 01:06:00,21.7,17.1,30.06,NW,319,11.0,16.0,82,0.00,,,0.00,meteohub,2013-02-15 07:06:00,
2013-02-15 01:11:00,21.6,16.9,30.06,NW,322,8.0,15.0,82,0.00,,,0.00,meteohub,2013-02-15 07:11:00,
2013-02-15 01:16:00,21.6,16.3,30.07,NNW,330,9.0,15.0,80,0.00,,,0.00,meteohub,2013-02-15 07:16:00,
2013-02-15 01:21:00,21.4,16.2,30.07,NW,326,9.0,15.0,80,0.00,,,0.00,meteohub,2013-02-15 07:21:00,
2013-02-15 01:26:00,21.2,16.0,30.07,NNW,328,10.0,14.0,80,0.00,,,0.00,meteohub,2013-02-15 07:26:00,
2013-02-15 01:32:00,20.8,15.4,30.07,NNW,336,8.0,14.0,79,0.00,,,0.00,meteohub,2013-02-15 07:32:00,
2013-02-15 01:37:00,20.8,15.6,30.08,NW,321,8.0,15.0,80,0.00,,,0.00,meteohub,2013-02-15 07:37:00,
2013-02-15 01:42:00,20.7,15.3,30.08,NW,317,5.0,15.0,79,0.00,,,0.00,meteohub,2013-02-15 07:42:00,
2013-02-15 01:47:00,20.7,15.3,30.08,NW,325,8.0,13.0,79,0.00,,,0.00,meteohub,2013-02-15 07:47:00,
2013-02-15 01:52:00,20.5,14.7,30.08,NW,319,7.0,13.0,78,0.00,,,0.00,meteohub,2013-02-15 07:52:00,
2013-02-15 01:57:00,20.5,14.7,30.09,NW,318,9.0,13.0,78,0.00,,,0.00,meteohub,2013-02-15 07:57:00,
2013-02-15 02:02:00,20.5,14.7,30.09,NW,313,8.0,11.0,78,0.00,,,0.00,meteohub,2013-02-15 08:02:00,
2013-02-15 02:07:00,20.3,14.5,30.09,NW,316,5.0,11.0,78,0.00,,,0.00,meteohub,2013-02-15 08:07:00,
2013-02-15 02:12:00,20.3,14.5,30.09,NNW,334,7.0,10.0,78,0.00,,,0.00,meteohub,2013-02-15 08:12:00,
2013-02-15 02:17:00,20.3,14.2,30.09,NW,321,7.0,10.0,77,0.00,,,0.00,meteohub,2013-02-15 08:17:00,
2013-02-15 02:22:00,20.1,14.0,30.09,NW,315,8.0,10.0,77,0.00,,,0.00,meteohub,2013-02-15 08:22:00,
2013-02-15 02:27:00,20.1,14.0,30.09,NW,317,6.0,10.0,77,0.00,,,0.00,meteohub,2013-02-15 08:27:00,
2013-02-15 02:32:00,20.1,14.0,30.09,NW,321,7.0,10.0,77,0.00,,,0.00,meteohub,2013-02-15 08:32:00,
2013-02-15 02:37:00,20.1,14.0,30.10,NW,316,8.0,10.0,77,0.00,,,0.00,meteohub,2013-02-15 08:37:00,
2013-02-15 02:42:00,19.9,13.6,30.10,NW,316,5.0,9.0,76,0.00,,,0.00,meteohub,2013-02-15 08:42:00,
2013-02-15 02:47:00,19.8,13.5,30.10,NW,321,7.0,10.0,76,0.00,,,0.00,meteohub,2013-02-15 08:47:00,
2013-02-15 02:52:00,19.2,12.6,30.10,NW,317,7.0,11.0,75,0.00,,,0.00,meteohub,2013-02-15 08:52:00,
2013-02-15 02:57:00,18.7,12.4,30.10,NW,317,7.0,11.0,76,0.00,,,0.00,meteohub,2013-02-15 08:57:00,
2013-02-15 03:02:00,18.1,11.5,30.10,NW,305,5.0,11.0,75,0.00,,,0.00,meteohub,2013-02-15 09:02:00,
2013-02-15 03:07:00,17.6,11.1,30.10,NW,316,7.0,10.0,75,0.00,,,0.00,meteohub,2013-02-15 09:07:00,
2013-02-15 03:12:00,17.1,10.8,30.10,NW,321,8.0,10.0,76,0.00,,,0.00,meteohub,2013-02-15 09:12:00,
2013-02-15 03:17:00,16.9,10.9,30.10,NW,315,8.0,10.0,77,0.00,,,0.00,meteohub,2013-02-15 09:17:00,
2013-02-15 03:22:00,16.9,10.9,30.10,NW,315,5.0,9.0,77,0.00,,,0.00,meteohub,2013-02-15 09:22:00,
2013-02-15 03:27:00,16.5,10.6,30.10,NW,319,3.0,9.0,77,0.00,,,0.00,meteohub,2013-02-15 09:27:00,
2013-02-15 03:32:00,16.3,10.4,30.11,NW,319,0.0,8.0,77,0.00,,,0.00,meteohub,2013-02-15 09:32:00,
2013-02-15 03:37:00,16.0,10.0,30.11,NW,319,2.0,8.0,77,0.00,,,0.00,meteohub,2013-02-15 09:37:00,
2013-02-15 03:42:00,15.4,9.5,30.11,NW,319,0.0,8.0,77,0.00,,,0.00,meteohub,2013-02-15 09:42:00,
2013-02-15 03:47:00,15.3,9.7,30.11,NW,319,0.0,3.0,78,0.00,,,0.00,meteohub,2013-02-15 09:47:00,
2013-02-15 03:52:00,15.1,9.5,30.11,NW,319,1.0,3.0,78,0.00,,,0.00,meteohub,2013-02-15 09:52:00,
2013-02-15 03:57:00,14.7,9.3,30.11,NW,319,0.0,3.0,79,0.00,,,0.00,meteohub,2013-02-15 09:57:00,
2013-02-15 04:02:00,14.5,9.1,30.11,NW,319,0.0,3.0,79,0.00,,,0.00,meteohub,2013-02-15 10:02:00,
2013-02-15 04:07:00,14.4,9.0,30.12,NW,319,1.0,3.0,79,0.00,,,0.00,meteohub,2013-02-15 10:07:00,
2013-02-15 04:12:00,14.0,8.8,30.12,NW,307,3.0,3.0,79,0.00,,,0.00,meteohub,2013-02-15 10:12:00,
2013-02-15 04:17:00,13.6,8.6,30.12,WNW,300,2.0,4.0,80,0.00,,,0.00,meteohub,2013-02-15 10:17:00,
2013-02-15 04:22:00,13.5,8.4,30.12,WNW,299,3.0,4.0,80,0.00,,,0.00,meteohub,2013-02-15 10:22:00,
2013-02-15 04:27:00,13.3,8.2,30.12,WNW,299,0.0,4.0,80,0.00,,,0.00,meteohub,2013-02-15 10:27:00,
2013-02-15 04:32:00,12.9,8.2,30.13,WNW,299,0.0,4.0,81,0.00,,,0.00,meteohub,2013-02-15 10:32:00,
2013-02-15 04:37:00,12.9,8.2,30.13,WNW,299,1.0,4.0,81,0.00,,,0.00,meteohub,2013-02-15 10:37:00,
2013-02-15 04:42:00,12.7,7.7,30.13,WNW,299,2.0,4.0,80,0.00,,,0.00,meteohub,2013-02-15 10:42:00,
2013-02-15 04:47:00,12.6,7.9,30.14,WNW,299,2.0,4.0,81,0.00,,,0.00,meteohub,2013-02-15 10:47:00,
2013-02-15 04:52:00,12.2,7.5,30.14,WNW,298,2.0,4.0,81,0.00,,,0.00,meteohub,2013-02-15 10:52:00,
2013-02-15 04:57:00,12.0,7.3,30.14,WNW,298,3.0,4.0,81,0.00,,,0.00,meteohub,2013-02-15 10:57:00,
2013-02-15 05:02:00,11.8,7.2,30.14,WNW,298,3.0,4.0,81,0.00,,,0.00,meteohub,2013-02-15 11:02:00,
2013-02-15 05:07:00,11.8,7.3,30.14,WNW,298,1.0,4.0,82,0.00,,,0.00,meteohub,2013-02-15 11:07:00,
2013-02-15 05:12:00,11.7,7.2,30.15,WNW,298,2.0,4.0,82,0.00,,,0.00,meteohub,2013-02-15 11:12:00,
2013-02-15 05:17:00,11.8,7.3,30.14,WNW,298,1.0,4.0,82,0.00,,,0.00,meteohub,2013-02-15 11:17:00,
2013-02-15 05:22:00,11.8,7.3,30.14,WNW,298,2.0,4.0,82,0.00,,,0.00,meteohub,2013-02-15 11:22:00,
2013-02-15 05:27:00,11.7,7.2,30.15,WNW,298,2.0,4.0,82,0.00,,,0.00,meteohub,2013-02-15 11:27:00,
2013-02-15 05:32:00,11.5,7.0,30.15,WNW,298,2.0,4.0,82,0.00,,,0.00,meteohub,2013-02-15 11:32:00,
2013-02-15 05:37:00,11.3,6.8,30.15,WNW,298,2.0,4.0,82,0.00,,,0.00,meteohub,2013-02-15 11:37:00,
2013-02-15 05:42:00,10.9,6.8,30.16,WNW,298,2.0,4.0,83,0.00,,,0.00,meteohub,2013-02-15 11:42:00,
2013-02-15 05:47:00,10.9,6.8,30.16,WNW,298,5.0,5.0,83,0.00,,,0.00,meteohub,2013-02-15 11:47:00,
2013-02-15 05:52:00,10.9,6.8,30.16,WNW,298,3.0,5.0,83,0.00,,,0.00,meteohub,2013-02-15 11:52:00,
2013-02-15 05:57:00,10.9,6.8,30.17,WNW,298,2.0,5.0,83,0.00,,,0.00,meteohub,2013-02-15 11:57:00,
2013-02-15 06:02:00,11.1,7.0,30.17,WNW,298,2.0,5.0,83,0.00,,,0.00,meteohub,2013-02-15 12:02:00,
2013-02-15 06:07:00,11.1,7.0,30.17,WNW,298,2.0,4.0,83,0.00,,,0.00,meteohub,2013-02-15 12:07:00,
2013-02-15 06:12:00,11.1,7.0,30.17,WNW,298,3.0,4.0,83,0.00,,,0.00,meteohub,2013-02-15 12:12:00,
2013-02-15 06:17:00,11.1,7.0,30.17,WNW,298,1.0,4.0,83,0.00,,,0.00,meteohub,2013-02-15 12:17:00,
2013-02-15 06:22:00,10.9,6.8,30.17,WNW,298,2.0,5.0,83,0.00,,,0.00,meteohub,2013-02-15 12:22:00,
2013-02-15 06:27:00,10.8,6.6,30.17,WNW,298,2.0,5.0,83,0.00,,,0.00,meteohub,2013-02-15 12:27:00,
2013-02-15 06:32:00,10.8,6.6,30.17,WNW,298,2.0,4.0,83,0.00,,,0.00,meteohub,2013-02-15 12:32:00,
2013-02-15 06:37:00,10.8,6.6,30.17,WNW,298,2.0,4.0,83,0.00,,,0.00,meteohub,2013-02-15 12:37:00,
2013-02-15 06:42:00,10.8,6.8,30.17,WNW,287,2.0,4.0,84,0.00,,,0.00,meteohub,2013-02-15 12:42:00,
2013-02-15 06:47:00,10.6,6.4,30.18,West,281,2.0,5.0,83,0.00,,,0.00,meteohub,2013-02-15 12:47:00,
2013-02-15 06:52:00,10.2,6.1,30.18,West,281,2.0,5.0,83,0.00,,,0.00,meteohub,2013-02-15 12:52:00,
2013-02-15 06:57:00,10.0,5.9,30.18,West,281,2.0,5.0,83,0.00,,,0.00,meteohub,2013-02-15 12:57:00,
2013-02-15 07:02:00,10.0,5.9,30.18,West,281,2.0,4.0,83,0.00,,,0.00,meteohub,2013-02-15 13:02:00,
2013-02-15 07:07:00,9.9,5.7,30.18,West,281,2.0,4.0,83,0.00,,,0.00,meteohub,2013-02-15 13:07:00,
2013-02-15 07:12:00,9.9,5.7,30.18,West,281,2.0,4.0,83,0.00,,,0.00,meteohub,2013-02-15 13:12:00,
2013-02-15 07:17:00,9.7,5.5,30.18,West,279,1.0,5.0,83,0.00,,,0.00,meteohub,2013-02-15 13:17:00,
2013-02-15 07:22:00,9.9,5.7,30.18,West,278,2.0,5.0,83,0.00,,,0.00,meteohub,2013-02-15 13:22:00,
2013-02-15 07:27:00,10.0,6.3,30.18,West,278,1.0,5.0,84,0.00,,,0.00,meteohub,2013-02-15 13:27:00,
2013-02-15 07:32:00,10.4,6.6,30.18,West,278,2.0,5.0,84,0.00,,,0.00,meteohub,2013-02-15 13:32:00,
2013-02-15 07:37:00,10.8,6.6,30.19,West,267,0.0,4.0,83,0.00,,,0.00,meteohub,2013-02-15 13:37:00,
2013-02-15 07:42:00,10.8,6.6,30.19,West,267,2.0,5.0,83,0.00,,,0.00,meteohub,2013-02-15 13:42:00,
2013-02-15 07:47:00,10.9,6.8,30.19,West,273,3.0,5.0,83,0.00,,,0.00,meteohub,2013-02-15 13:47:00,
2013-02-15 07:52:00,11.1,6.6,30.20,West,268,3.0,7.0,82,0.00,,,0.00,meteohub,2013-02-15 13:52:00,
2013-02-15 07:57:00,11.5,7.0,30.20,West,262,4.0,8.0,82,0.00,,,0.00,meteohub,2013-02-15 13:57:00,
2013-02-15 08:02:00,11.7,7.2,30.21,West,264,6.0,8.0,82,0.00,,,0.00,meteohub,2013-02-15 14:02:00,
2013-02-15 08:07:00,11.7,7.0,30.21,West,268,3.0,8.0,81,0.00,,,0.00,meteohub,2013-02-15 14:07:00,
2013-02-15 08:12:00,11.8,7.2,30.21,West,271,4.0,8.0,81,0.00,,,0.00,meteohub,2013-02-15 14:12:00,
2013-02-15 08:17:00,11.8,7.2,30.21,West,262,2.0,8.0,81,0.00,,,0.00,meteohub,2013-02-15 14:17:00,
2013-02-15 08:22:00,12.0,7.3,30.21,West,263,5.0,7.0,81,0.00,,,0.00,meteohub,2013-02-15 14:22:00,
2013-02-15 08:27:00,12.4,7.3,30.21,West,267,1.0,6.0,80,0.00,,,0.00,meteohub,2013-02-15 14:27:00,
2013-02-15 08:32:00,12.6,7.5,30.21,West,267,3.0,5.0,80,0.00,,,0.00,meteohub,2013-02-15 14:32:00,
2013-02-15 08:37:00,12.7,7.7,30.21,West,270,4.0,5.0,80,0.00,,,0.00,meteohub,2013-02-15 14:37:00,
2013-02-15 08:42:00,13.1,7.9,30.22,West,281,4.0,5.0,79,0.00,,,0.00,meteohub,2013-02-15 14:42:00,
2013-02-15 08:47:00,13.3,8.1,30.22,West,264,3.0,8.0,79,0.00,,,0.00,meteohub,2013-02-15 14:47:00,
2013-02-15 08:52:00,13.1,7.9,30.22,West,277,3.0,8.0,79,0.00,,,0.00,meteohub,2013-02-15 14:52:00,
2013-02-15 08:57:00,13.1,7.9,30.22,West,264,3.0,8.0,79,0.00,,,0.00,meteohub,2013-02-15 14:57:00,
2013-02-15 09:02:00,13.3,8.1,30.22,West,279,5.0,7.0,79,0.00,,,0.00,meteohub,2013-02-15 15:02:00,
2013-02-15 09:07:00,13.5,8.2,30.22,West,267,3.0,7.0,79,0.00,,,0.00,meteohub,2013-02-15 15:07:00,
2013-02-15 09:12:00,13.6,8.1,30.22,West,273,4.0,7.0,78,0.00,,,0.00,meteohub,2013-02-15 15:12:00,
2013-02-15 09:17:00,13.8,8.2,30.22,West,281,4.0,7.0,78,0.00,,,0.00,meteohub,2013-02-15 15:17:00,
2013-02-15 09:22:00,13.8,8.2,30.22,West,261,4.0,7.0,78,0.00,,,0.00,meteohub,2013-02-15 15:22:00,
2013-02-15 09:27:00,14.2,8.6,30.22,West,279,3.0,7.0,78,0.00,,,0.00,meteohub,2013-02-15 15:27:00,
2013-02-15 09:32:00,14.4,8.8,30.22,West,274,3.0,7.0,78,0.00,,,0.00,meteohub,2013-02-15 15:32:00,
2013-02-15 09:37:00,14.5,9.0,30.22,West,273,4.0,7.0,78,0.00,,,0.00,meteohub,2013-02-15 15:37:00,
2013-02-15 09:42:00,14.7,9.1,30.22,West,259,6.0,7.0,78,0.00,,,0.00,meteohub,2013-02-15 15:42:00,
2013-02-15 09:47:00,15.1,9.5,30.22,West,268,3.0,8.0,78,0.00,,,0.00,meteohub,2013-02-15 15:47:00,
2013-02-15 09:52:00,15.3,9.3,30.22,WSW,252,0.0,8.0,77,0.00,,,0.00,meteohub,2013-02-15 15:52:00,
2013-02-15 09:57:00,15.6,9.7,30.22,West,269,2.0,8.0,77,0.00,,,0.00,meteohub,2013-02-15 15:57:00,
2013-02-15 10:02:00,16.0,10.0,30.22,West,265,3.0,7.0,77,0.00,,,0.00,meteohub,2013-02-15 16:02:00,
2013-02-15 10:07:00,16.3,10.4,30.22,West,265,1.0,8.0,77,0.00,,,0.00,meteohub,2013-02-15 16:07:00,
2013-02-15 10:12:00,16.7,10.8,30.22,West,275,4.0,8.0,77,0.00,,,0.00,meteohub,2013-02-15 16:12:00,
2013-02-15 10:17:00,17.1,11.1,30.22,West,270,3.0,8.0,77,0.00,,,0.00,meteohub,2013-02-15 16:17:00,
2013-02-15 10:22:00,17.4,11.5,30.22,West,272,2.0,8.0,77,0.00,,,0.00,meteohub,2013-02-15 16:22:00,
2013-02-15 10:27:00,17.4,11.1,30.22,West,271,3.0,8.0,76,0.00,,,0.00,meteohub,2013-02-15 16:27:00,
2013-02-15 10:32:00,17.2,10.9,30.22,WNW,295,3.0,6.0,76,0.00,,,0.00,meteohub,2013-02-15 16:32:00,
2013-02-15 10:37:00,17.1,10.8,30.22,West,268,5.0,8.0,76,0.00,,,0.00,meteohub,2013-02-15 16:37:00,
2013-02-15 10:42:00,16.9,10.4,30.22,West,270,3.0,8.0,75,0.00,,,0.00,meteohub,2013-02-15 16:42:00,
2013-02-15 10:47:00,16.9,10.4,30.22,West,278,4.0,8.0,75,0.00,,,0.00,meteohub,2013-02-15 16:47:00,
2013-02-15 10:52:00,16.9,10.4,30.22,West,278,5.0,7.0,75,0.00,,,0.00,meteohub,2013-02-15 16:52:00,
2013-02-15 10:57:00,17.1,10.6,30.22,WSW,257,8.0,8.0,75,0.00,,,0.00,meteohub,2013-02-15 16:57:00,
2013-02-15 11:02:00,16.9,10.4,30.22,West,264,5.0,9.0,75,0.00,,,0.00,meteohub,2013-02-15 17:02:00,
2013-02-15 11:07:00,17.1,10.6,30.22,WSW,246,3.0,9.0,75,0.00,,,0.00,meteohub,2013-02-15 17:07:00,
2013-02-15 11:12:00,17.4,10.9,30.22,WSW,250,3.0,9.0,75,0.00,,,0.00,meteohub,2013-02-15 17:12:00,
2013-02-15 11:17:00,17.8,10.9,30.22,WSW,252,5.0,9.0,74,0.00,,,0.00,meteohub,2013-02-15 17:17:00,
2013-02-15 11:22:00,17.8,10.9,30.22,WSW,257,4.0,8.0,74,0.00,,,0.00,meteohub,2013-02-15 17:22:00,
2013-02-15 11:27:00,18.0,11.1,30.22,West,266,6.0,8.0,74,0.00,,,0.00,meteohub,2013-02-15 17:27:00,
2013-02-15 11:32:00,18.0,11.1,30.21,WSW,242,4.0,8.0,74,0.00,,,0.00,meteohub,2013-02-15 17:32:00,
2013-02-15 11:37:00,18.1,10.9,30.21,WNW,283,4.0,8.0,73,0.00,,,0.00,meteohub,2013-02-15 17:37:00,
2013-02-15 11:42:00,18.5,11.7,30.21,West,277,4.0,8.0,74,0.00,,,0.00,meteohub,2013-02-15 17:42:00,
2013-02-15 11:47:00,18.9,11.7,30.21,WSW,245,5.0,8.0,73,0.00,,,0.00,meteohub,2013-02-15 17:47:00,
2013-02-15 11:52:00,18.9,11.7,30.21,West,275,5.0,8.0,73,0.00,,,0.00,meteohub,2013-02-15 17:52:00,
2013-02-15 11:57:00,19.0,11.8,30.21,WSW,257,6.0,9.0,73,0.00,,,0.00,meteohub,2013-02-15 17:57:00,
2013-02-15 12:02:00,19.0,11.8,30.21,WSW,252,7.0,9.0,73,0.00,,,0.00,meteohub,2013-02-15 18:02:00,
2013-02-15 12:07:00,19.2,12.0,30.21,WSW,258,7.0,9.0,73,0.00,,,0.00,meteohub,2013-02-15 18:07:00,
2013-02-15 12:12:00,19.6,12.4,30.21,WSW,254,8.0,11.0,73,0.00,,,0.00,meteohub,2013-02-15 18:12:00,
2013-02-15 12:17:00,19.8,12.2,30.20,West,263,5.0,11.0,72,0.00,,,0.00,meteohub,2013-02-15 18:17:00,
2013-02-15 12:22:00,19.9,12.4,30.20,West,281,6.0,11.0,72,0.00,,,0.00,meteohub,2013-02-15 18:22:00,
2013-02-15 12:27:00,19.9,12.4,30.20,West,264,4.0,9.0,72,0.00,,,0.00,meteohub,2013-02-15 18:27:00,
2013-02-15 12:32:00,20.1,12.2,30.20,WSW,254,6.0,9.0,71,0.00,,,0.00,meteohub,2013-02-15 18:32:00,
2013-02-15 12:37:00,19.9,11.7,30.20,West,269,8.0,10.0,70,0.00,,,0.00,meteohub,2013-02-15 18:37:00,
2013-02-15 12:42:00,19.9,12.0,30.20,WSW,242,9.0,13.0,71,0.00,,,0.00,meteohub,2013-02-15 18:42:00,
2013-02-15 12:47:00,20.1,12.2,30.20,WSW,245,5.0,13.0,71,0.00,,,0.00,meteohub,2013-02-15 18:47:00,
2013-02-15 12:52:00,20.1,11.8,30.20,West,267,7.0,13.0,70,0.00,,,0.00,meteohub,2013-02-15 18:52:00,
2013-02-15 12:57:00,20.3,12.0,30.19,WNW,289,5.0,11.0,70,0.00,,,0.00,meteohub,2013-02-15 18:57:00,
2013-02-15 13:02:00,20.7,12.7,30.19,WSW,255,8.0,11.0,71,0.00,,,0.00,meteohub,2013-02-15 19:02:00,
2013-02-15 13:07:00,20.7,12.4,30.19,WSW,249,6.0,10.0,70,0.00,,,0.00,meteohub,2013-02-15 19:07:00,
2013-02-15 13:12:00,20.8,12.2,30.19,West,281,6.0,10.0,69,0.00,,,0.00,meteohub,2013-02-15 19:12:00,
2013-02-15 13:17:00,21.0,12.7,30.19,WSW,258,10.0,10.0,70,0.00,,,0.00,meteohub,2013-02-15 19:17:00,
2013-02-15 13:22:00,21.0,12.4,30.19,WSW,252,7.0,12.0,69,0.00,,,0.00,meteohub,2013-02-15 19:22:00,
2013-02-15 13:27:00,21.4,12.7,30.19,West,270,9.0,12.0,69,0.00,,,0.00,meteohub,2013-02-15 19:27:00,
2013-02-15 13:32:00,21.4,12.7,30.19,WSW,252,3.0,12.0,69,0.00,,,0.00,meteohub,2013-02-15 19:32:00,
2013-02-15 13:37:00,21.6,12.6,30.19,West,259,6.0,11.0,68,0.00,,,0.00,meteohub,2013-02-15 19:37:00,
2013-02-15 13:42:00,21.7,12.7,30.19,West,265,8.0,11.0,68,0.00,,,0.00,meteohub,2013-02-15 19:42:00,
2013-02-15 13:47:00,21.6,12.0,30.19,WSW,254,5.0,11.0,66,0.00,,,0.00,meteohub,2013-02-15 19:47:00,
2013-02-15 13:52:00,21.7,12.6,30.18,WSW,254,8.0,10.0,67,0.00,,,0.00,meteohub,2013-02-15 19:52:00,
2013-02-15 13:57:00,21.7,12.6,30.18,WSW,243,7.0,10.0,67,0.00,,,0.00,meteohub,2013-02-15 19:57:00,
2013-02-15 14:02:00,21.9,12.4,30.18,West,261,6.0,10.0,66,0.00,,,0.00,meteohub,2013-02-15 20:02:00,
2013-02-15 14:07:00,21.9,12.4,30.18,West,265,3.0,10.0,66,0.00,,,0.00,meteohub,2013-02-15 20:07:00,
2013-02-15 14:12:00,21.9,12.0,30.18,West,259,3.0,10.0,65,0.00,,,0.00,meteohub,2013-02-15 20:12:00,
2013-02-15 14:17:00,22.1,11.8,30.18,West,275,6.0,10.0,64,0.00,,,0.00,meteohub,2013-02-15 20:17:00,
2013-02-15 14:22:00,22.3,12.0,30.18,WSW,255,7.0,11.0,64,0.00,,,0.00,meteohub,2013-02-15 20:22:00,
2013-02-15 14:27:00,22.3,11.7,30.18,West,275,4.0,11.0,63,0.00,,,0.00,meteohub,2013-02-15 20:27:00,
2013-02-15 14:32:00,22.5,11.8,30.18,West,281,5.0,10.0,63,0.00,,,0.00,meteohub,2013-02-15 20:32:00,
2013-02-15 14:37:00,22.5,11.1,30.18,West,280,8.0,10.0,61,0.00,,,0.00,meteohub,2013-02-15 20:37:00,
2013-02-15 14:42:00,22.5,11.5,30.18,WNW,288,7.0,11.0,62,0.00,,,0.00,meteohub,2013-02-15 20:42:00,
2013-02-15 14:47:00,22.6,11.7,30.18,WSW,257,5.0,11.0,62,0.00,,,0.00,meteohub,2013-02-15 20:47:00,
2013-02-15 14:52:00,22.6,11.3,30.18,West,281,2.0,11.0,61,0.00,,,0.00,meteohub,2013-02-15 20:52:00,
2013-02-15 14:57:00,22.5,10.8,30.18,WSW,254,9.0,9.0,60,0.00,,,0.00,meteohub,2013-02-15 20:57:00,
2013-02-15 15:02:00,22.5,11.1,30.18,WSW,255,6.0,13.0,61,0.00,,,0.00,meteohub,2013-02-15 21:02:00,
2013-02-15 15:07:00,22.5,11.5,30.18,West,269,3.0,13.0,62,0.00,,,0.00,meteohub,2013-02-15 21:07:00,
2013-02-15 15:12:00,22.5,10.8,30.19,West,261,8.0,13.0,60,0.00,,,0.00,meteohub,2013-02-15 21:12:00,
2013-02-15 15:17:00,22.5,10.2,30.19,West,262,8.0,13.0,59,0.00,,,0.00,meteohub,2013-02-15 21:17:00,
2013-02-15 15:22:00,22.5,9.9,30.19,WNW,288,9.0,13.0,58,0.00,,,0.00,meteohub,2013-02-15 21:22:00,
2013-02-15 15:27:00,22.5,10.2,30.19,WSW,239,6.0,13.0,59,0.00,,,0.00,meteohub,2013-02-15 21:27:00,
2013-02-15 15:32:00,22.6,10.4,30.19,West,279,7.0,12.0,59,0.00,,,0.00,meteohub,2013-02-15 21:32:00,
2013-02-15 15:38:00,22.6,10.4,30.19,West,265,5.0,11.0,59,0.00,,,0.00,meteohub,2013-02-15 21:38:00,
2013-02-15 15:43:00,22.5,9.9,30.19,WSW,248,7.0,10.0,58,0.00,,,0.00,meteohub,2013-02-15 21:43:00,
2013-02-15 15:48:00,22.6,10.4,30.19,WNW,294,2.0,9.0,59,0.00,,,0.00,meteohub,2013-02-15 21:48:00,
2013-02-15 15:53:00,22.6,10.0,30.19,West,274,5.0,9.0,58,0.00,,,0.00,meteohub,2013-02-15 21:53:00,
2013-02-15 15:58:00,22.5,9.5,30.19,West,265,8.0,9.0,57,0.00,,,0.00,meteohub,2013-02-15 21:58:00,
2013-02-15 16:03:00,22.5,9.5,30.19,West,263,4.0,9.0,57,0.00,,,0.00,meteohub,2013-02-15 22:03:00,
2013-02-15 16:09:00,22.5,9.5,30.19,WSW,250,5.0,9.0,57,0.00,,,0.00,meteohub,2013-02-15 22:09:00,
2013-02-15 16:14:00,22.3,9.0,30.19,WSW,257,4.0,9.0,56,0.00,,,0.00,meteohub,2013-02-15 22:14:00,
2013-02-15 16:19:00,21.9,9.0,30.19,West,267,2.0,10.0,57,0.00,,,0.00,meteohub,2013-02-15 22:19:00,
2013-02-15 16:24:00,21.6,9.1,30.19,West,267,1.0,10.0,58,0.00,,,0.00,meteohub,2013-02-15 22:24:00,
2013-02-15 16:29:00,21.2,9.1,30.20,West,263,2.0,10.0,59,0.00,,,0.00,meteohub,2013-02-15 22:29:00,
2013-02-15 16:35:00,21.0,9.0,30.20,WSW,254,4.0,5.0,59,0.00,,,0.00,meteohub,2013-02-15 22:35:00,
2013-02-15 16:40:00,21.0,8.6,30.20,West,274,1.0,4.0,58,0.00,,,0.00,meteohub,2013-02-15 22:40:00,
2013-02-15 16:45:00,20.8,8.8,30.20,West,261,4.0,6.0,59,0.00,,,0.00,meteohub,2013-02-15 22:45:00,
2013-02-15 16:50:00,20.7,9.0,30.20,West,264,0.0,6.0,60,0.00,,,0.00,meteohub,2013-02-15 22:50:00,
2013-02-15 16:55:00,20.1,8.8,30.20,West,264,0.0,5.0,61,0.00,,,0.00,meteohub,2013-02-15 22:55:00,
2013-02-15 17:00:00,20.1,8.8,30.20,West,264,1.0,5.0,61,0.00,,,0.00,meteohub,2013-02-15 23:00:00,
2013-02-15 17:06:00,19.9,8.6,30.20,West,264,2.0,3.0,61,0.00,,,0.00,meteohub,2013-02-15 23:06:00,
2013-02-15 17:11:00,19.8,8.8,30.21,West,264,1.0,3.0,62,0.00,,,0.00,meteohub,2013-02-15 23:11:00,
2013-02-15 17:16:00,19.6,9.0,30.21,West,264,0.0,3.0,63,0.00,,,0.00,meteohub,2013-02-15 23:16:00,
2013-02-15 17:21:00,19.6,9.0,30.21,West,264,0.0,3.0,63,0.00,,,0.00,meteohub,2013-02-15 23:21:00,
2013-02-15 17:27:00,19.6,9.0,30.21,West,264,0.0,3.0,63,0.00,,,0.00,meteohub,2013-02-15 23:27:00,
2013-02-15 17:32:00,19.6,9.0,30.21,West,264,2.0,3.0,63,0.00,,,0.00,meteohub,2013-02-15 23:32:00,
2013-02-15 17:37:00,19.4,9.1,30.21,West,264,2.0,4.0,64,0.00,,,0.00,meteohub,2013-02-15 23:37:00,
2013-02-15 17:42:00,19.0,9.1,30.21,West,265,3.0,4.0,65,0.00,,,0.00,meteohub,2013-02-15 23:42:00,
2013-02-15 17:47:00,18.9,9.0,30.22,West,269,0.0,4.0,65,0.00,,,0.00,meteohub,2013-02-15 23:47:00,
2013-02-15 17:52:00,18.3,9.0,30.22,West,269,0.0,5.0,66,0.00,,,0.00,meteohub,2013-02-15 23:52:00,
2013-02-15 17:58:00,18.0,8.8,30.22,West,269,1.0,5.0,67,0.00,,,0.00,meteohub,2013-02-15 23:58:00,
2013-02-15 18:03:00,18.0,8.8,30.22,WSW,242,2.0,5.0,67,0.00,,,0.00,meteohub,2013-02-16 00:03:00,
2013-02-15 18:08:00,18.1,8.8,30.22,West,259,1.0,6.0,66,0.00,,,0.00,meteohub,2013-02-16 00:08:00,
2013-02-15 18:13:00,18.0,8.6,30.22,WSW,242,0.0,6.0,66,0.00,,,0.00,meteohub,2013-02-16 00:13:00,
2013-02-15 18:18:00,17.4,8.4,30.22,WSW,242,2.0,6.0,67,0.00,,,0.00,meteohub,2013-02-16 00:18:00,
2013-02-15 18:24:00,17.1,8.1,30.22,WSW,242,2.0,6.0,67,0.00,,,0.00,meteohub,2013-02-16 00:24:00,
2013-02-15 18:29:00,16.7,8.1,30.22,WSW,242,1.0,4.0,68,0.00,,,0.00,meteohub,2013-02-16 00:29:00,
2013-02-15 18:34:00,16.5,7.9,30.22,WSW,242,0.0,4.0,68,0.00,,,0.00,meteohub,2013-02-16 00:34:00,
2013-02-15 18:39:00,16.2,7.7,30.22,WSW,242,1.0,3.0,69,0.00,,,0.00,meteohub,2013-02-16 00:39:00,
2013-02-15 18:44:00,16.0,7.9,30.23,WSW,242,2.0,3.0,70,0.00,,,0.00,meteohub,2013-02-16 00:44:00,
2013-02-15 18:49:00,15.4,7.3,30.23,WSW,242,2.0,3.0,70,0.00,,,0.00,meteohub,2013-02-16 00:49:00,
2013-02-15 18:55:00,15.6,7.9,30.23,NW,319,5.0,5.0,71,0.00,,,0.00,meteohub,2013-02-16 00:55:00,
2013-02-15 19:00:00,16.2,8.1,30.23,NW,315,6.0,6.0,70,0.00,,,0.00,meteohub,2013-02-16 01:00:00,
2013-02-15 19:05:00,16.2,8.1,30.23,NW,315,3.0,8.0,70,0.00,,,0.00,meteohub,2013-02-16 01:05:00,
2013-02-15 19:10:00,16.0,7.7,30.23,NW,317,6.0,8.0,69,0.00,,,0.00,meteohub,2013-02-16 01:10:00,
2013-02-15 19:15:00,15.6,7.5,30.23,NW,317,4.0,8.0,70,0.00,,,0.00,meteohub,2013-02-16 01:15:00,
2013-02-15 19:20:00,16.0,7.9,30.23,NW,315,4.0,9.0,70,0.00,,,0.00,meteohub,2013-02-16 01:20:00,
2013-02-15 19:26:00,16.0,7.9,30.23,NW,315,4.0,9.0,70,0.00,,,0.00,meteohub,2013-02-16 01:26:00,
2013-02-15 19:31:00,15.6,7.3,30.23,NW,316,3.0,9.0,69,0.00,,,0.00,meteohub,2013-02-16 01:31:00,
2013-02-15 19:36:00,15.4,7.2,30.23,West,280,3.0,9.0,69,0.00,,,0.00,meteohub,2013-02-16 01:36:00,
2013-02-15 19:41:00,15.4,7.2,30.23,NW,315,2.0,9.0,69,0.00,,,0.00,meteohub,2013-02-16 01:41:00,
2013-02-15 19:46:00,15.3,7.0,30.23,NW,318,2.0,9.0,69,0.00,,,0.00,meteohub,2013-02-16 01:46:00,
2013-02-15 19:52:00,14.9,6.6,30.23,WNW,296,4.0,7.0,69,0.00,,,0.00,meteohub,2013-02-16 01:52:00,
2013-02-15 19:57:00,14.7,6.4,30.23,WNW,296,0.0,7.0,69,0.00,,,0.00,meteohub,2013-02-16 01:57:00,
2013-02-15 20:02:00,14.5,6.3,30.23,NW,307,0.0,6.0,69,0.00,,,0.00,meteohub,2013-02-16 02:02:00,
2013-02-15 20:07:00,14.4,6.4,30.23,NW,308,0.0,8.0,70,0.00,,,0.00,meteohub,2013-02-16 02:07:00,
2013-02-15 20:12:00,14.2,6.3,30.23,West,281,0.0,8.0,70,0.00,,,0.00,meteohub,2013-02-16 02:12:00,
2013-02-15 20:17:00,14.2,6.3,30.23,WNW,284,0.0,8.0,70,0.00,,,0.00,meteohub,2013-02-16 02:17:00,
2013-02-15 20:22:00,13.8,5.9,30.23,WNW,288,2.0,8.0,70,0.00,,,0.00,meteohub,2013-02-16 02:22:00,
2013-02-15 20:28:00,13.6,6.1,30.24,WNW,289,0.0,4.0,71,0.00,,,0.00,meteohub,2013-02-16 02:28:00,
2013-02-15 20:33:00,13.6,6.1,30.24,WNW,289,0.0,4.0,71,0.00,,,0.00,meteohub,2013-02-16 02:33:00,
2013-02-15 20:38:00,13.5,5.9,30.24,WNW,290,3.0,4.0,71,0.00,,,0.00,meteohub,2013-02-16 02:38:00,
2013-02-15 20:43:00,13.5,5.9,30.24,West,281,0.0,4.0,71,0.00,,,0.00,meteohub,2013-02-16 02:43:00,
2013-02-15 20:48:00,13.5,5.9,30.24,West,281,2.0,6.0,71,0.00,,,0.00,meteohub,2013-02-16 02:48:00,
2013-02-15 20:54:00,13.3,5.7,30.24,West,267,5.0,6.0,71,0.00,,,0.00,meteohub,2013-02-16 02:54:00,
2013-02-15 20:59:00,13.3,5.9,30.24,West,267,3.0,4.0,72,0.00,,,0.00,meteohub,2013-02-16 02:59:00,
2013-02-15 21:04:00,13.1,5.7,30.24,West,267,2.0,5.0,72,0.00,,,0.00,meteohub,2013-02-16 03:04:00,
2013-02-15 21:09:00,13.1,6.1,30.24,West,267,2.0,5.0,73,0.00,,,0.00,meteohub,2013-02-16 03:09:00,
2013-02-15 21:14:00,13.3,6.3,30.24,West,265,2.0,6.0,73,0.00,,,0.00,meteohub,2013-02-16 03:14:00,
2013-02-15 21:20:00,13.5,6.4,30.24,West,265,4.0,6.0,73,0.00,,,0.00,meteohub,2013-02-16 03:20:00,
2013-02-15 21:25:00,13.6,7.0,30.25,WSW,252,5.0,6.0,74,0.00,,,0.00,meteohub,2013-02-16 03:25:00,
2013-02-15 21:30:00,14.0,7.0,30.24,West,271,4.0,7.0,73,0.00,,,0.00,meteohub,2013-02-16 03:30:00,
2013-02-15 21:35:00,14.2,7.2,30.24,West,261,5.0,9.0,73,0.00,,,0.00,meteohub,2013-02-16 03:35:00,
2013-02-15 21:41:00,14.2,7.2,30.24,WNW,283,3.0,9.0,73,0.00,,,0.00,meteohub,2013-02-16 03:41:00,
2013-02-15 21:46:00,14.2,7.2,30.25,NW,304,4.0,9.0,73,0.00,,,0.00,meteohub,2013-02-16 03:46:00,
2013-02-15 21:51:00,14.2,7.2,30.24,West,275,2.0,8.0,73,0.00,,,0.00,meteohub,2013-02-16 03:51:00,
2013-02-15 21:56:00,14.2,7.2,30.25,West,272,3.0,8.0,73,0.00,,,0.00,meteohub,2013-02-16 03:56:00,
2013-02-15 22:02:00,14.2,6.8,30.24,West,270,5.0,7.0,72,0.00,,,0.00,meteohub,2013-02-16 04:02:00,
2013-02-15 22:07:00,14.0,6.6,30.24,West,275,3.0,7.0,72,0.00,,,0.00,meteohub,2013-02-16 04:07:00,
2013-02-15 22:12:00,14.0,6.6,30.24,West,278,0.0,9.0,72,0.00,,,0.00,meteohub,2013-02-16 04:12:00,
2013-02-15 22:17:00,13.8,6.4,30.24,WNW,290,2.0,9.0,72,0.00,,,0.00,meteohub,2013-02-16 04:17:00,
2013-02-15 22:22:00,13.8,6.4,30.24,West,281,3.0,9.0,72,0.00,,,0.00,meteohub,2013-02-16 04:22:00,
2013-02-15 22:27:00,13.8,6.4,30.24,West,271,2.0,8.0,72,0.00,,,0.00,meteohub,2013-02-16 04:27:00,
2013-02-15 22:32:00,13.8,6.4,30.24,West,272,5.0,8.0,72,0.00,,,0.00,meteohub,2013-02-16 04:32:00,
2013-02-15 22:37:00,13.6,6.3,30.24,West,277,3.0,8.0,72,0.00,,,0.00,meteohub,2013-02-16 04:37:00,
2013-02-15 22:42:00,13.6,6.3,30.24,West,269,1.0,8.0,72,0.00,,,0.00,meteohub,2013-02-16 04:42:00,
2013-02-15 22:47:00,13.6,6.3,30.24,West,265,2.0,8.0,72,0.00,,,0.00,meteohub,2013-02-16 04:47:00,
2013-02-15 22:52:00,13.5,6.1,30.24,West,263,1.0,8.0,72,0.00,,,0.00,meteohub,2013-02-16 04:52:00,
2013-02-15 22:57:00,13.5,6.1,30.24,WSW,258,4.0,6.0,72,0.00,,,0.00,meteohub,2013-02-16 04:57:00,
2013-02-15 23:00:00,13.5,5.9,30.24,West,273,4.0,6.0,71,0.00,,,0.00,meteohub,2013-02-16 05:00:00,
2013-02-15 23:02:00,13.3,5.9,30.24,NW,306,1.0,6.0,72,0.00,,,0.00,meteohub,2013-02-16 05:02:00,
2013-02-15 23:04:00,13.3,5.9,30.24,West,271,0.0,6.0,72,0.00,,,0.00,meteohub,2013-02-16 05:04:00,
2013-02-15 23:10:00,13.1,5.7,30.24,WNW,284,8.0,8.0,72,0.00,,,0.00,meteohub,2013-02-16 05:10:00,
2013-02-15 23:15:00,12.9,5.5,30.24,West,262,1.0,9.0,72,0.00,,,0.00,meteohub,2013-02-16 05:15:00,
2013-02-15 23:20:00,12.7,5.4,30.24,WSW,245,1.0,9.0,72,0.00,,,0.00,meteohub,2013-02-16 05:20:00,
2013-02-15 23:23:00,12.7,5.4,30.24,WNW,288,2.0,9.0,72,0.00,,,0.00,meteohub,2013-02-16 05:23:00,
2013-02-15 23:28:00,12.7,5.7,30.24,West,277,3.0,9.0,73,0.00,,,0.00,meteohub,2013-02-16 05:28:00,
2013-02-15 23:33:00,12.6,5.5,30.24,West,265,2.0,7.0,73,0.00,,,0.00,meteohub,2013-02-16 05:33:00,
2013-02-15 23:39:00,12.4,5.4,30.24,NW,312,0.0,8.0,73,0.00,,,0.00,meteohub,2013-02-16 05:39:00,
2013-02-15 23:44:00,12.2,5.2,30.24,West,274,1.0,8.0,73,0.00,,,0.00,meteohub,2013-02-16 05:44:00,
2013-02-15 23:49:00,12.0,5.0,30.24,WNW,289,1.0,8.0,73,0.00,,,0.00,meteohub,2013-02-16 05:49:00,
2013-02-15 23:54:00,12.0,5.4,30.24,West,277,3.0,7.0,74,0.00,,,0.00,meteohub,2013-02-16 05:54:00,
2013-02-15 23:59:00,11.8,5.2,30.24,WNW,295,0.0,7.0,74,0.00,,,0.00,meteohub,2013-02-16 05:59:00,